TimeCDT,TemperatureF,Dew PointF,Humidity,Sea Level PressureIn,VisibilityMPH,Wind Direction,Wind SpeedMPH,Gust SpeedMPH,PrecipitationIn,Events,Conditions,WindDirDegrees,DateUTC
12:11 AM,75.2,66.2,73,29.84,10.0,South,10.4,-,N/A,,Scattered Clouds,180,2013-08-25 05:11:00
12:31 AM,75.2,68.0,78,29.84,10.0,South,6.9,-,N/A,,Clear,170,2013-08-25 05:31:00
12:51 AM,75.2,68.0,78,29.84,10.0,SSW,5.8,-,N/A,,Clear,200,2013-08-25 05:51:00
1:11 AM,75.2,69.8,83,29.84,10.0,South,4.6,-,N/A,,Clear,180,2013-08-25 06:11:00
1:31 AM,75.2,69.8,83,29.84,10.0,South,4.6,-,N/A,,Clear,180,2013-08-25 06:31:00
1:51 AM,75.2,69.8,83,29.84,10.0,South,5.8,-,N/A,,Clear,180,2013-08-25 06:51:00
2:11 AM,75.2,69.8,83,29.84,10.0,South,6.9,-,N/A,,Clear,190,2013-08-25 07:11:00
2:31 AM,75.2,71.6,89,29.82,10.0,South,5.8,-,N/A,,Clear,190,2013-08-25 07:31:00
2:51 AM,75.2,71.6,89,29.85,10.0,SSW,8.1,-,N/A,Thunderstorm,Clear,210,2013-08-25 07:51:00
3:11 AM,75.2,71.6,89,29.86,10.0,SSW,8.1,16.1,N/A,Thunderstorm,Thunderstorm,210,2013-08-25 08:11:00
3:31 AM,73.4,69.8,88,29.84,7.0,SSW,10.4,-,0.04,Rain-Thunderstorm,Thunderstorms and Rain,210,2013-08-25 08:31:00
3:51 AM,68.0,66.2,94,29.84,10.0,South,4.6,-,0.04,Thunderstorm,Thunderstorm,180,2013-08-25 08:51:00
4:11 AM,66.2,64.4,94,29.85,10.0,SW,3.5,-,N/A,Thunderstorm,Clear,220,2013-08-25 09:11:00
4:31 AM,66.2,62.6,88,29.87,10.0,Calm,Calm,-,N/A,,Scattered Clouds,0,2013-08-25 09:31:00
4:51 AM,66.2,64.4,94,29.86,5.0,Calm,Calm,-,N/A,,Overcast,0,2013-08-25 09:51:00
5:11 AM,66.2,64.4,94,29.86,7.0,Calm,Calm,-,N/A,,Overcast,0,2013-08-25 10:11:00
5:31 AM,66.2,64.4,94,29.86,5.0,Calm,Calm,-,N/A,,Overcast,0,2013-08-25 10:31:00
5:51 AM,66.2,64.4,94,29.87,4.0,Calm,Calm,-,N/A,,Overcast,0,2013-08-25 10:51:00
6:11 AM,66.2,64.4,94,29.88,5.0,Calm,Calm,-,N/A,,Mostly Cloudy,0,2013-08-25 11:11:00
6:31 AM,66.2,64.4,94,29.88,5.0,Calm,Calm,-,N/A,,Scattered Clouds,0,2013-08-25 11:31:00
6:51 AM,69.8,69.8,100,29.89,7.0,South,3.5,-,N/A,,Clear,170,2013-08-25 11:51:00
7:11 AM,71.6,71.6,100,29.89,7.0,South,3.5,-,N/A,,Clear,180,2013-08-25 12:11:00
7:31 AM,73.4,73.4,100,29.90,7.0,South,3.5,-,N/A,Thunderstorm,Scattered Clouds,180,2013-08-25 12:31:00
7:51 AM,75.2,73.4,94,29.89,7.0,South,4.6,-,N/A,,Scattered Clouds,180,2013-08-25 12:51:00
8:11 AM,75.2,73.4,94,29.88,10.0,South,3.5,-,N/A,,Scattered Clouds,190,2013-08-25 13:11:00
8:31 AM,75.2,75.2,100,29.88,10.0,Calm,Calm,-,N/A,,Clear,0,2013-08-25 13:31:00
8:51 AM,77.0,75.2,94,29.87,10.0,Calm,Calm,-,N/A,,Clear,0,2013-08-25 13:51:00
9:11 AM,78.8,78.8,100,29.87,10.0,Calm,Calm,-,N/A,,Clear,0,2013-08-25 14:11:00
9:31 AM,80.6,78.8,94,29.88,10.0,West,4.6,-,N/A,,Clear,260,2013-08-25 14:31:00
9:51 AM,82.4,80.6,94,29.88,10.0,WSW,3.5,-,N/A,,Clear,240,2013-08-25 14:51:00
10:11 AM,82.4,80.6,94,29.89,10.0,SW,8.1,-,N/A,,Scattered Clouds,230,2013-08-25 15:11:00
10:31 AM,84.2,80.6,89,29.90,10.0,WSW,5.8,-,N/A,,Scattered Clouds,250,2013-08-25 15:31:00
10:51 AM,84.2,78.8,84,29.90,10.0,SW,5.8,-,N/A,,Scattered Clouds,230,2013-08-25 15:51:00
11:11 AM,86.0,82.4,89,29.90,10.0,WSW,3.5,-,N/A,,Scattered Clouds,250,2013-08-25 16:11:00
11:31 AM,87.8,82.4,84,29.90,10.0,SW,3.5,-,N/A,,Scattered Clouds,230,2013-08-25 16:31:00
11:51 AM,87.8,82.4,84,29.90,10.0,Calm,Calm,-,N/A,,Scattered Clouds,0,2013-08-25 16:51:00
12:11 PM,87.8,82.4,84,29.91,10.0,Calm,Calm,-,N/A,,Clear,0,2013-08-25 17:11:00
12:31 PM,87.8,82.4,84,29.91,10.0,West,4.6,-,N/A,,Scattered Clouds,280,2013-08-25 17:31:00
12:51 PM,89.6,77.0,66,29.91,10.0,WSW,4.6,-,N/A,,Scattered Clouds,250,2013-08-25 17:51:00
1:11 PM,89.6,77.0,66,29.91,10.0,NW,6.9,-,N/A,,Scattered Clouds,310,2013-08-25 18:11:00
1:31 PM,91.4,73.4,55,29.91,10.0,West,6.9,-,N/A,,Scattered Clouds,260,2013-08-25 18:31:00
1:51 PM,91.4,71.6,52,29.91,10.0,SSW,4.6,-,N/A,,Scattered Clouds,210,2013-08-25 18:51:00
2:11 PM,91.4,69.8,49,29.91,10.0,SSW,5.8,-,N/A,,Clear,200,2013-08-25 19:11:00
2:31 PM,91.4,69.8,49,29.91,10.0,West,3.5,-,N/A,,Clear,270,2013-08-25 19:31:00
2:51 PM,93.2,69.8,46,29.91,10.0,NW,5.8,-,N/A,,Clear,320,2013-08-25 19:51:00
3:11 PM,93.2,66.2,41,29.91,10.0,NNW,5.8,-,N/A,,Clear,330,2013-08-25 20:11:00
3:31 PM,93.2,66.2,41,29.91,10.0,NNW,4.6,-,N/A,,Clear,340,2013-08-25 20:31:00
3:51 PM,93.2,66.2,41,29.91,10.0,WSW,5.8,-,N/A,,Clear,250,2013-08-25 20:51:00
4:11 PM,93.2,66.2,41,29.91,10.0,WNW,4.6,-,N/A,,Clear,300,2013-08-25 21:11:00
4:31 PM,93.2,66.2,41,29.91,10.0,SW,3.5,-,N/A,,Clear,230,2013-08-25 21:31:00
4:51 PM,93.2,68.0,44,29.91,10.0,West,3.5,-,N/A,,Clear,280,2013-08-25 21:51:00
5:11 PM,91.4,66.2,43,29.91,10.0,Calm,Calm,-,N/A,,Clear,0,2013-08-25 22:11:00
5:31 PM,89.6,66.2,46,29.92,10.0,NNW,3.5,-,N/A,,Clear,340,2013-08-25 22:31:00
5:51 PM,87.8,64.4,46,29.91,10.0,NNW,3.5,-,N/A,,Clear,340,2013-08-25 22:51:00
6:11 PM,86.0,66.2,51,29.91,10.0,Calm,Calm,-,N/A,,Clear,0,2013-08-25 23:11:00
6:31 PM,87.8,66.2,49,29.92,10.0,Calm,Calm,-,N/A,,Clear,0,2013-08-25 23:31:00
6:51 PM,87.8,68.0,52,29.92,10.0,Calm,Calm,-,N/A,,Clear,0,2013-08-25 23:51:00
7:11 PM,84.2,69.8,62,29.92,10.0,Calm,Calm,-,N/A,,Clear,0,2013-08-26 00:11:00
7:31 PM,80.6,66.2,61,29.93,10.0,Calm,Calm,-,N/A,,Clear,0,2013-08-26 00:31:00
7:51 PM,77.0,66.2,69,29.93,10.0,Calm,Calm,-,N/A,,Clear,0,2013-08-26 00:51:00
8:11 PM,73.4,64.4,73,29.93,10.0,Calm,Calm,-,N/A,,Clear,0,2013-08-26 01:11:00
8:31 PM,71.6,64.4,78,29.94,10.0,Calm,Calm,-,N/A,,Clear,0,2013-08-26 01:31:00
8:51 PM,71.6,64.4,78,29.95,10.0,Calm,Calm,-,N/A,,Clear,0,2013-08-26 01:51:00
9:11 PM,69.8,64.4,83,29.95,7.0,Calm,Calm,-,N/A,,Clear,0,2013-08-26 02:11:00
9:31 PM,69.8,64.4,83,29.96,10.0,Calm,Calm,-,N/A,Thunderstorm,Clear,0,2013-08-26 02:31:00
9:51 PM,69.8,64.4,83,29.95,10.0,Calm,Calm,-,N/A,,Clear,0,2013-08-26 02:51:00
10:11 PM,68.0,64.4,88,29.94,10.0,Calm,Calm,-,N/A,,Clear,0,2013-08-26 03:11:00
10:31 PM,68.0,64.4,88,29.94,10.0,Calm,Calm,-,N/A,,Clear,0,2013-08-26 03:31:00
10:51 PM,66.2,62.6,88,29.95,7.0,Calm,Calm,-,N/A,,Clear,0,2013-08-26 03:51:00
11:11 PM,66.2,62.6,88,29.94,10.0,Calm,Calm,-,N/A,,Clear,0,2013-08-26 04:11:00
11:31 PM,64.4,62.6,94,29.93,7.0,Calm,Calm,-,N/A,,Clear,0,2013-08-26 04:31:00
11:51 PM,64.4,62.6,94,29.93,7.0,Calm,Calm,-,N/A,,Clear,0,2013-08-26 04:51:00